Time,TemperatureF,DewpointF,PressureIn,WindDirection,WindDirectionDegrees,WindSpeedMPH,WindSpeedGustMPH,Humidity,HourlyPrecipIn,Conditions,Clouds,dailyrainin,SoftwareType,DateUTC
2013-05-10 00:01:00,57.1,56.5,29.92,SE,140,0.0,3.0,98,0.00,,---,0.09,VWS V13.00,2013-05-10 04:01:00,
2013-05-10 00:06:00,57.0,56.4,29.92,SE,140,0.0,3.0,98,0.00,,---,0.09,VWS V13.00,2013-05-10 04:06:00,
2013-05-10 00:11:00,57.0,56.4,29.92,SE,140,0.0,1.0,98,0.00,,---,0.00,VWS V13.00,2013-05-10 04:11:00,
2013-05-10 00:16:00,57.0,56.4,29.92,SE,140,0.0,1.0,98,0.00,,---,0.00,VWS V13.00,2013-05-10 04:16:00,
2013-05-10 00:21:00,57.0,56.4,29.92,SE,140,0.0,2.0,98,0.00,,---,0.00,VWS V13.00,2013-05-10 04:21:00,
2013-05-10 00:26:00,57.0,56.4,29.92,SE,140,0.0,2.0,98,0.00,,---,0.00,VWS V13.00,2013-05-10 04:26:00,
2013-05-10 00:31:00,57.0,56.4,29.92,SE,140,0.0,2.0,98,0.00,,---,0.00,VWS V13.00,2013-05-10 04:31:00,
2013-05-10 00:36:00,57.0,56.4,29.91,SE,140,0.0,2.0,98,0.00,,---,0.00,VWS V13.00,2013-05-10 04:36:00,
2013-05-10 00:41:00,56.9,56.6,29.91,SE,140,0.0,1.0,99,0.00,,---,0.00,VWS V13.00,2013-05-10 04:41:00,
2013-05-10 00:46:00,56.9,56.6,29.91,SE,140,0.0,1.0,99,0.00,,---,0.00,VWS V13.00,2013-05-10 04:46:00,
2013-05-10 00:51:00,56.8,56.5,29.91,SE,140,0.0,1.0,99,0.00,,---,0.00,VWS V13.00,2013-05-10 04:51:00,
2013-05-10 00:56:00,56.7,56.4,29.91,SE,140,0.0,3.0,99,0.00,,---,0.00,VWS V13.00,2013-05-10 04:56:00,
2013-05-10 01:01:00,56.7,56.1,29.91,SE,140,0.0,3.0,98,0.00,,---,0.00,VWS V13.00,2013-05-10 05:01:00,
2013-05-10 01:06:00,56.7,56.4,29.91,SE,140,0.0,3.0,99,0.00,,---,0.00,VWS V13.00,2013-05-10 05:06:00,
2013-05-10 01:11:00,56.7,56.4,29.92,SE,140,0.0,0.0,99,0.00,,---,0.00,VWS V13.00,2013-05-10 05:11:00,
2013-05-10 01:16:00,56.7,56.4,29.91,SE,140,0.0,1.0,99,0.00,,---,0.00,VWS V13.00,2013-05-10 05:16:00,
2013-05-10 01:21:00,56.6,56.3,29.91,SE,140,0.0,1.0,99,0.00,,---,0.00,VWS V13.00,2013-05-10 05:21:00,
2013-05-10 01:26:00,56.6,56.3,29.91,SE,140,0.0,1.0,99,0.00,,---,0.00,VWS V13.00,2013-05-10 05:26:00,
2013-05-10 01:31:00,56.6,56.3,29.91,SE,140,0.0,1.0,99,0.00,,---,0.00,VWS V13.00,2013-05-10 05:31:00,
2013-05-10 01:36:00,56.5,56.2,29.91,SE,140,0.0,1.0,99,0.00,,---,0.00,VWS V13.00,2013-05-10 05:36:00,
2013-05-10 01:41:00,56.5,56.2,29.91,SE,140,0.0,0.0,99,0.00,,---,0.00,VWS V13.00,2013-05-10 05:41:00,
2013-05-10 01:46:00,56.5,56.2,29.91,SE,140,0.0,0.0,99,0.00,,---,0.00,VWS V13.00,2013-05-10 05:46:00,
2013-05-10 01:51:00,56.5,56.2,29.91,SE,140,0.0,0.0,99,0.00,,---,0.00,VWS V13.00,2013-05-10 05:51:00,
2013-05-10 01:56:00,56.4,56.1,29.91,SE,140,0.0,0.0,99,0.00,,---,0.00,VWS V13.00,2013-05-10 05:56:00,
2013-05-10 02:01:00,56.4,56.1,29.91,SE,140,0.0,0.0,99,0.00,,---,0.00,VWS V13.00,2013-05-10 06:01:00,
2013-05-10 02:06:00,56.4,56.1,29.91,SE,140,0.0,0.0,99,0.00,,---,0.00,VWS V13.00,2013-05-10 06:06:00,
2013-05-10 02:11:00,56.4,56.1,29.91,SE,140,0.0,0.0,99,0.00,,---,0.00,VWS V13.00,2013-05-10 06:11:00,
2013-05-10 02:16:00,56.4,56.1,29.91,SE,140,0.0,0.0,99,0.00,,---,0.00,VWS V13.00,2013-05-10 06:16:00,
2013-05-10 02:21:00,56.4,56.1,29.91,SE,140,0.0,0.0,99,0.00,,---,0.00,VWS V13.00,2013-05-10 06:21:00,
2013-05-10 02:26:00,56.4,56.1,29.91,SE,140,0.0,0.0,99,0.00,,---,0.00,VWS V13.00,2013-05-10 06:26:00,
2013-05-10 02:31:00,56.4,56.1,29.92,SE,140,0.0,1.0,99,0.00,,---,0.00,VWS V13.00,2013-05-10 06:31:00,
2013-05-10 02:36:00,56.4,56.1,29.92,SE,140,0.0,1.0,99,0.00,,---,0.00,VWS V13.00,2013-05-10 06:36:00,
2013-05-10 02:41:00,56.4,56.1,29.92,SE,140,0.0,0.0,99,0.00,,---,0.00,VWS V13.00,2013-05-10 06:41:00,
2013-05-10 02:46:00,56.5,56.2,29.92,SE,140,0.0,0.0,99,0.00,,---,0.00,VWS V13.00,2013-05-10 06:46:00,
2013-05-10 02:51:00,56.4,56.1,29.91,SE,140,0.0,0.0,99,0.00,,---,0.00,VWS V13.00,2013-05-10 06:51:00,
2013-05-10 02:56:00,56.4,56.1,29.91,SE,140,0.0,0.0,99,0.00,,---,0.00,VWS V13.00,2013-05-10 06:56:00,
2013-05-10 03:01:00,56.4,56.1,29.91,SE,140,0.0,0.0,99,0.00,,---,0.00,VWS V13.00,2013-05-10 07:01:00,
2013-05-10 03:06:00,56.4,56.1,29.91,SE,140,0.0,0.0,99,0.00,,---,0.00,VWS V13.00,2013-05-10 07:06:00,
2013-05-10 03:11:00,56.5,56.2,29.91,SE,140,0.0,0.0,99,0.00,,---,0.00,VWS V13.00,2013-05-10 07:11:00,
2013-05-10 03:16:00,56.5,56.2,29.91,SE,140,0.0,0.0,99,0.00,,---,0.00,VWS V13.00,2013-05-10 07:16:00,
2013-05-10 03:21:00,56.4,56.1,29.91,SE,140,0.0,0.0,99,0.00,,---,0.00,VWS V13.00,2013-05-10 07:21:00,
2013-05-10 03:25:00,56.4,56.1,29.91,SE,140,0.0,0.0,99,0.00,,---,0.00,VWS V13.00,2013-05-10 07:25:00,
2013-05-10 03:31:00,56.4,56.1,29.91,SE,140,0.0,0.0,99,0.00,,---,0.00,VWS V13.00,2013-05-10 07:31:00,
2013-05-10 03:35:00,56.4,56.1,29.91,SE,140,0.0,0.0,99,0.00,,---,0.00,VWS V13.00,2013-05-10 07:35:00,
2013-05-10 03:40:00,56.3,56.0,29.92,SE,140,0.0,0.0,99,0.00,,---,0.00,VWS V13.00,2013-05-10 07:40:00,
2013-05-10 03:45:00,56.4,56.1,29.91,SE,140,0.0,0.0,99,0.00,,---,0.00,VWS V13.00,2013-05-10 07:45:00,
2013-05-10 03:50:00,56.4,56.1,29.92,SE,140,0.0,0.0,99,0.00,,---,0.00,VWS V13.00,2013-05-10 07:50:00,
2013-05-10 03:55:00,56.4,56.1,29.92,SE,140,0.0,0.0,99,0.00,,---,0.00,VWS V13.00,2013-05-10 07:55:00,
2013-05-10 04:00:00,56.5,56.2,29.92,SE,140,0.0,0.0,99,0.00,,---,0.00,VWS V13.00,2013-05-10 08:00:00,
2013-05-10 04:05:00,56.5,56.2,29.92,SE,140,0.0,0.0,99,0.00,,---,0.00,VWS V13.00,2013-05-10 08:05:00,
2013-05-10 04:10:00,56.5,56.2,29.91,SE,140,0.0,1.0,99,0.00,,---,0.00,VWS V13.00,2013-05-10 08:10:00,
2013-05-10 04:15:00,56.5,56.2,29.91,SE,140,0.0,1.0,99,0.00,,---,0.00,VWS V13.00,2013-05-10 08:15:00,
2013-05-10 04:20:00,56.6,56.3,29.91,SE,140,0.0,1.0,99,0.00,,---,0.00,VWS V13.00,2013-05-10 08:20:00,
2013-05-10 04:25:00,56.6,56.3,29.91,SE,140,0.0,1.0,99,0.00,,---,0.00,VWS V13.00,2013-05-10 08:25:00,
2013-05-10 04:30:00,56.5,56.2,29.91,SE,140,0.0,1.0,99,0.00,,---,0.00,VWS V13.00,2013-05-10 08:30:00,
2013-05-10 04:35:00,56.5,56.2,29.91,SE,140,0.0,1.0,99,0.00,,---,0.00,VWS V13.00,2013-05-10 08:35:00,
2013-05-10 04:40:00,56.5,56.2,29.91,SE,140,0.0,0.0,99,0.00,,---,0.00,VWS V13.00,2013-05-10 08:40:00,
2013-05-10 04:45:00,56.6,56.3,29.92,SE,140,0.0,0.0,99,0.00,,---,0.00,VWS V13.00,2013-05-10 08:45:00,
2013-05-10 04:50:00,56.6,56.3,29.92,SE,140,0.0,1.0,99,0.00,,---,0.00,VWS V13.00,2013-05-10 08:50:00,
2013-05-10 04:55:00,56.6,56.3,29.92,SE,140,0.0,1.0,99,0.00,,---,0.00,VWS V13.00,2013-05-10 08:55:00,
2013-05-10 05:00:00,56.6,56.3,29.92,SE,140,0.0,2.0,99,0.00,,---,0.00,VWS V13.00,2013-05-10 09:00:00,
2013-05-10 05:05:00,56.6,56.3,29.92,SE,140,0.0,2.0,99,0.00,,---,0.00,VWS V13.00,2013-05-10 09:05:00,
2013-05-10 05:10:00,56.5,56.2,29.92,SE,140,0.0,2.0,99,0.00,,---,0.00,VWS V13.00,2013-05-10 09:10:00,
2013-05-10 05:15:00,56.5,56.2,29.92,SE,140,0.0,2.0,99,0.00,,---,0.00,VWS V13.00,2013-05-10 09:15:00,
2013-05-10 05:20:00,56.3,56.0,29.92,SE,140,1.0,3.0,99,0.00,,---,0.00,VWS V13.00,2013-05-10 09:20:00,
2013-05-10 05:25:00,56.2,55.9,29.92,SE,140,0.0,3.0,99,0.00,,---,0.00,VWS V13.00,2013-05-10 09:25:00,
2013-05-10 05:30:00,56.0,55.7,29.93,SE,140,0.0,3.0,99,0.00,,---,0.00,VWS V13.00,2013-05-10 09:30:00,
2013-05-10 05:35:00,56.0,55.7,29.93,SE,140,0.0,3.0,99,0.00,,---,0.00,VWS V13.00,2013-05-10 09:35:00,
2013-05-10 05:40:00,55.9,55.6,29.93,SE,140,0.0,2.0,99,0.00,,---,0.00,VWS V13.00,2013-05-10 09:40:00,
2013-05-10 05:45:00,55.8,55.5,29.93,SE,140,0.0,2.0,99,0.00,,---,0.00,VWS V13.00,2013-05-10 09:45:00,
2013-05-10 05:50:00,55.7,55.4,29.94,SE,140,0.0,2.0,99,0.00,,---,0.00,VWS V13.00,2013-05-10 09:50:00,
2013-05-10 05:55:00,55.7,55.4,29.93,SE,140,0.0,2.0,99,0.00,,---,0.00,VWS V13.00,2013-05-10 09:55:00,
2013-05-10 06:00:00,55.6,55.3,29.94,SE,140,0.0,2.0,99,0.00,,---,0.00,VWS V13.00,2013-05-10 10:00:00,
2013-05-10 06:05:00,55.6,55.3,29.94,SE,140,0.0,2.0,99,0.00,,---,0.00,VWS V13.00,2013-05-10 10:05:00,
2013-05-10 06:10:00,55.6,55.3,29.94,SE,140,0.0,2.0,99,0.00,,---,0.00,VWS V13.00,2013-05-10 10:10:00,
2013-05-10 06:15:00,55.6,55.3,29.94,SE,140,0.0,2.0,99,0.00,,---,0.00,VWS V13.00,2013-05-10 10:15:00,
2013-05-10 06:20:00,55.6,55.3,29.94,SE,140,1.0,3.0,99,0.00,,---,0.00,VWS V13.00,2013-05-10 10:20:00,
2013-05-10 06:25:00,55.6,55.3,29.94,SE,140,0.0,3.0,99,0.00,,---,0.00,VWS V13.00,2013-05-10 10:25:00,
2013-05-10 06:30:00,55.5,55.2,29.94,SE,140,1.0,3.0,99,0.00,,---,0.00,VWS V13.00,2013-05-10 10:30:00,
2013-05-10 06:35:00,55.4,55.1,29.94,SE,140,0.0,3.0,99,0.00,,---,0.00,VWS V13.00,2013-05-10 10:35:00,
2013-05-10 06:40:00,55.3,55.0,29.94,SE,140,0.0,1.0,99,0.00,,---,0.00,VWS V13.00,2013-05-10 10:40:00,
2013-05-10 06:45:00,55.4,55.1,29.94,SE,140,0.0,2.0,99,0.00,,---,0.00,VWS V13.00,2013-05-10 10:45:00,
2013-05-10 06:50:00,55.3,55.0,29.94,SE,140,0.0,2.0,99,0.00,,---,0.00,VWS V13.00,2013-05-10 10:50:00,
2013-05-10 06:55:00,55.2,54.9,29.94,SE,140,1.0,2.0,99,0.00,,---,0.00,VWS V13.00,2013-05-10 10:55:00,
2013-05-10 07:00:00,55.1,54.8,29.94,SE,140,0.0,2.0,99,0.00,,---,0.00,VWS V13.00,2013-05-10 11:00:00,
2013-05-10 07:05:00,55.1,54.8,29.94,SE,140,0.0,2.0,99,0.00,,---,0.00,VWS V13.00,2013-05-10 11:05:00,
2013-05-10 07:10:00,55.2,54.9,29.94,SE,140,0.0,0.0,99,0.00,,---,0.00,VWS V13.00,2013-05-10 11:10:00,
2013-05-10 07:15:00,55.2,54.9,29.94,SE,140,0.0,0.0,99,0.00,,---,0.00,VWS V13.00,2013-05-10 11:15:00,
2013-05-10 07:20:00,55.3,55.0,29.95,SE,140,1.0,1.0,99,0.00,,---,0.00,VWS V13.00,2013-05-10 11:20:00,
2013-05-10 07:25:00,55.3,55.0,29.95,SE,140,0.0,1.0,99,0.00,,---,0.00,VWS V13.00,2013-05-10 11:25:00,
2013-05-10 07:30:00,55.5,55.2,29.95,SE,140,0.0,1.0,99,0.00,,---,0.00,VWS V13.00,2013-05-10 11:30:00,
2013-05-10 07:35:00,55.7,55.4,29.95,SE,140,0.0,1.0,99,0.00,,---,0.00,VWS V13.00,2013-05-10 11:35:00,
2013-05-10 07:40:00,55.8,55.8,29.96,SE,140,0.0,1.0,100,0.00,,---,0.00,VWS V13.00,2013-05-10 11:40:00,
2013-05-10 07:45:00,55.9,55.9,29.95,SE,140,0.0,1.0,100,0.00,,---,0.00,VWS V13.00,2013-05-10 11:45:00,
2013-05-10 07:50:00,56.1,55.8,29.95,SE,140,0.0,1.0,99,0.00,,---,0.00,VWS V13.00,2013-05-10 11:50:00,
2013-05-10 07:55:00,56.2,55.9,29.95,SE,140,0.0,1.0,99,0.00,,---,0.00,VWS V13.00,2013-05-10 11:55:00,
2013-05-10 08:00:00,56.4,56.4,29.96,SE,140,0.0,1.0,100,0.00,,---,0.00,VWS V13.00,2013-05-10 12:00:00,
2013-05-10 08:05:00,56.6,56.6,29.95,SE,140,0.0,1.0,100,0.00,,---,0.00,VWS V13.00,2013-05-10 12:05:00,
2013-05-10 08:10:00,56.7,56.4,29.95,SE,140,0.0,1.0,99,0.00,,---,0.00,VWS V13.00,2013-05-10 12:10:00,
2013-05-10 08:15:00,56.9,56.6,29.96,SE,140,0.0,1.0,99,0.00,,---,0.00,VWS V13.00,2013-05-10 12:15:00,
2013-05-10 08:20:00,57.1,57.1,29.96,SE,140,1.0,3.0,100,0.00,,---,0.00,VWS V13.00,2013-05-10 12:20:00,
2013-05-10 08:25:00,57.4,57.4,29.96,SE,140,0.0,3.0,100,0.00,,---,0.00,VWS V13.00,2013-05-10 12:25:00,
2013-05-10 08:30:00,57.6,57.6,29.96,SE,140,0.0,3.0,100,0.00,,---,0.00,VWS V13.00,2013-05-10 12:30:00,
2013-05-10 08:35:00,57.9,57.9,29.96,SE,140,0.0,3.0,100,0.00,,---,0.00,VWS V13.00,2013-05-10 12:35:00,
2013-05-10 08:40:00,58.1,58.1,29.97,SE,140,0.0,4.0,100,0.00,,---,0.00,VWS V13.00,2013-05-10 12:40:00,
2013-05-10 08:45:00,58.4,58.4,29.97,SE,140,0.0,4.0,100,0.00,,---,0.00,VWS V13.00,2013-05-10 12:45:00,
2013-05-10 08:50:00,58.7,58.7,29.97,SE,140,0.0,4.0,100,0.00,,---,0.00,VWS V13.00,2013-05-10 12:50:00,
2013-05-10 08:55:00,59.0,59.0,29.97,SE,140,0.0,4.0,100,0.00,,---,0.00,VWS V13.00,2013-05-10 12:55:00,
2013-05-10 09:00:00,59.0,59.0,29.96,SE,140,1.0,4.0,100,0.00,,---,0.00,VWS V13.00,2013-05-10 13:00:00,
2013-05-10 09:05:00,59.0,59.0,29.96,SE,140,0.0,4.0,100,0.00,,---,0.00,VWS V13.00,2013-05-10 13:05:00,
2013-05-10 09:10:00,59.0,59.0,29.96,SE,140,0.0,3.0,100,0.00,,---,0.00,VWS V13.00,2013-05-10 13:10:00,
2013-05-10 09:15:00,59.6,59.6,29.96,SE,140,0.0,3.0,100,0.00,,---,0.00,VWS V13.00,2013-05-10 13:15:00,
2013-05-10 09:20:00,60.5,60.5,29.96,SE,140,0.0,3.0,100,0.00,,---,0.00,VWS V13.00,2013-05-10 13:20:00,
2013-05-10 09:25:00,60.6,60.6,29.96,SSE,157,3.0,4.0,100,0.00,,---,0.00,VWS V13.00,2013-05-10 13:25:00,
2013-05-10 09:30:00,61.1,61.1,29.95,SE,144,0.0,6.0,100,0.00,,---,0.00,VWS V13.00,2013-05-10 13:30:00,
2013-05-10 09:35:00,61.8,61.5,29.95,NW,325,1.0,8.0,99,0.00,,---,0.00,VWS V13.00,2013-05-10 13:35:00,
2013-05-10 09:40:00,62.6,62.0,29.95,NW,323,0.0,2.0,98,0.00,,---,0.00,VWS V13.00,2013-05-10 13:40:00,
2013-05-10 09:45:00,63.4,62.2,29.95,NW,321,1.0,5.0,96,0.00,,---,0.00,VWS V13.00,2013-05-10 13:45:00,
2013-05-10 09:50:00,64.3,61.9,29.95,NW,317,4.0,5.0,92,0.00,,---,0.00,VWS V13.00,2013-05-10 13:50:00,
2013-05-10 09:55:00,65.2,60.9,29.95,NW,313,4.0,5.0,86,0.00,,---,0.00,VWS V13.00,2013-05-10 13:55:00,
2013-05-10 10:00:00,66.3,61.7,29.95,NW,313,0.0,5.0,85,0.00,,---,0.00,VWS V13.00,2013-05-10 14:00:00,
2013-05-10 10:05:00,67.4,60.7,29.95,NW,314,1.0,5.0,79,0.00,,---,0.00,VWS V13.00,2013-05-10 14:05:00,
2013-05-10 10:10:00,68.2,60.3,29.95,NW,315,0.0,3.0,76,0.00,,---,0.00,VWS V13.00,2013-05-10 14:10:00,
2013-05-10 10:15:00,69.1,60.5,29.95,NW,315,0.0,3.0,74,0.00,,---,0.00,VWS V13.00,2013-05-10 14:15:00,
2013-05-10 10:20:00,69.8,60.4,29.95,NW,315,1.0,3.0,72,0.00,,---,0.00,VWS V13.00,2013-05-10 14:20:00,
2013-05-10 10:25:00,70.2,60.8,29.95,NW,326,3.0,5.0,72,0.00,,---,0.00,VWS V13.00,2013-05-10 14:25:00,
2013-05-10 10:30:00,70.4,60.6,29.94,NNW,329,0.0,6.0,71,0.00,,---,0.00,VWS V13.00,2013-05-10 14:30:00,
2013-05-10 10:35:00,70.4,61.0,29.95,NW,325,0.0,6.0,72,0.00,,---,0.00,VWS V13.00,2013-05-10 14:35:00,
2013-05-10 10:40:00,70.6,60.3,29.95,NW,325,0.0,3.0,70,0.00,,---,0.00,VWS V13.00,2013-05-10 14:40:00,
2013-05-10 10:45:00,70.8,60.5,29.95,NW,325,0.0,4.0,70,0.00,,---,0.00,VWS V13.00,2013-05-10 14:45:00,
2013-05-10 10:50:00,71.4,59.9,29.95,NNW,327,0.0,6.0,67,0.00,,---,0.00,VWS V13.00,2013-05-10 14:50:00,
2013-05-10 10:55:00,72.3,61.6,29.95,NNW,331,2.0,6.0,69,0.00,,---,0.00,VWS V13.00,2013-05-10 14:55:00,
2013-05-10 11:00:00,73.0,61.0,29.95,NNW,331,3.0,6.0,66,0.00,,---,0.00,VWS V13.00,2013-05-10 15:00:00,
2013-05-10 11:05:00,72.8,58.6,29.95,NNW,329,0.0,6.0,61,0.00,,---,0.00,VWS V13.00,2013-05-10 15:05:00,
2013-05-10 11:10:00,72.6,59.7,29.95,NNW,329,0.0,1.0,64,0.00,,---,0.00,VWS V13.00,2013-05-10 15:10:00,
2013-05-10 11:15:00,73.2,60.3,29.95,NNW,329,2.0,5.0,64,0.00,,---,0.00,VWS V13.00,2013-05-10 15:15:00,
2013-05-10 11:20:00,73.8,59.1,29.94,NNW,329,0.0,5.0,60,0.01,,---,0.01,VWS V13.00,2013-05-10 15:20:00,
2013-05-10 11:25:00,74.0,58.3,29.94,NNW,329,0.0,5.0,58,0.01,,---,0.01,VWS V13.00,2013-05-10 15:25:00,
2013-05-10 11:30:00,74.2,59.0,29.95,NNW,327,0.0,5.0,59,0.01,,---,0.01,VWS V13.00,2013-05-10 15:30:00,
2013-05-10 11:35:00,74.4,58.7,29.94,NNW,329,2.0,5.0,58,0.01,,---,0.01,VWS V13.00,2013-05-10 15:35:00,
2013-05-10 11:40:00,73.9,57.7,29.95,NNW,328,1.0,3.0,57,0.01,,---,0.01,VWS V13.00,2013-05-10 15:40:00,
2013-05-10 11:45:00,73.4,57.7,29.95,NNW,327,0.0,3.0,58,0.01,,---,0.01,VWS V13.00,2013-05-10 15:45:00,
2013-05-10 11:50:00,73.3,58.1,29.95,NW,323,0.0,3.0,59,0.01,,---,0.01,VWS V13.00,2013-05-10 15:50:00,
2013-05-10 11:55:00,74.1,58.9,29.94,NW,323,1.0,3.0,59,0.01,,---,0.01,VWS V13.00,2013-05-10 15:55:00,
2013-05-10 12:00:00,74.6,59.8,29.94,NW,325,0.0,3.0,60,0.01,,---,0.01,VWS V13.00,2013-05-10 16:00:00,
2013-05-10 12:05:00,75.0,58.3,29.94,NW,322,3.0,3.0,56,0.01,,---,0.01,VWS V13.00,2013-05-10 16:05:00,
2013-05-10 12:10:00,74.6,58.4,29.94,NW,308,2.0,4.0,57,0.01,,---,0.01,VWS V13.00,2013-05-10 16:10:00,
2013-05-10 12:15:00,74.3,58.1,29.94,NW,307,1.0,4.0,57,0.01,,---,0.01,VWS V13.00,2013-05-10 16:15:00,
2013-05-10 12:20:00,74.4,56.7,29.94,NW,307,0.0,4.0,54,0.01,,---,0.01,VWS V13.00,2013-05-10 16:20:00,
2013-05-10 12:25:00,74.2,59.0,29.94,NW,307,2.0,4.0,59,0.01,,---,0.01,VWS V13.00,2013-05-10 16:25:00,
2013-05-10 12:30:00,74.5,58.3,29.94,NW,307,2.0,4.0,57,0.01,,---,0.01,VWS V13.00,2013-05-10 16:30:00,
2013-05-10 12:35:00,74.4,57.7,29.94,NW,307,0.0,4.0,56,0.01,,---,0.01,VWS V13.00,2013-05-10 16:35:00,
2013-05-10 12:40:00,74.9,58.2,29.93,NW,305,0.0,3.0,56,0.00,,---,0.01,VWS V13.00,2013-05-10 16:40:00,
2013-05-10 12:45:00,75.1,60.3,29.93,NW,304,1.0,4.0,60,0.00,,---,0.01,VWS V13.00,2013-05-10 16:45:00,
2013-05-10 12:50:00,75.6,57.8,29.93,WNW,300,0.0,4.0,54,0.00,,---,0.01,VWS V13.00,2013-05-10 16:50:00,
2013-05-10 12:55:00,76.1,58.8,29.93,WNW,301,0.0,4.0,55,0.00,,---,0.01,VWS V13.00,2013-05-10 16:55:00,
2013-05-10 13:00:00,77.0,57.5,29.92,WNW,301,3.0,4.0,51,0.00,,---,0.01,VWS V13.00,2013-05-10 17:00:00,
2013-05-10 13:05:00,77.3,58.8,29.92,WNW,301,2.0,4.0,53,0.00,,---,0.01,VWS V13.00,2013-05-10 17:05:00,
2013-05-10 13:10:00,77.3,58.8,29.92,WNW,300,0.0,3.0,53,0.00,,---,0.01,VWS V13.00,2013-05-10 17:10:00,
2013-05-10 13:15:00,77.1,57.0,29.92,West,265,1.0,6.0,50,0.00,,---,0.01,VWS V13.00,2013-05-10 17:15:00,
2013-05-10 13:20:00,76.6,57.1,29.92,WSW,240,2.0,6.0,51,0.00,,---,0.01,VWS V13.00,2013-05-10 17:20:00,
2013-05-10 13:25:00,77.4,56.8,29.92,WSW,240,2.0,6.0,49,0.00,,---,0.01,VWS V13.00,2013-05-10 17:25:00,
2013-05-10 13:30:00,78.3,59.2,29.91,WSW,240,2.0,6.0,52,0.00,,---,0.01,VWS V13.00,2013-05-10 17:30:00,
2013-05-10 13:35:00,78.0,56.7,29.91,WSW,240,3.0,6.0,48,0.00,,---,0.01,VWS V13.00,2013-05-10 17:35:00,
2013-05-10 13:40:00,77.8,56.0,29.91,WSW,240,1.0,5.0,47,0.00,,---,0.01,VWS V13.00,2013-05-10 17:40:00,
2013-05-10 13:45:00,77.5,55.7,29.91,WSW,240,0.0,5.0,47,0.00,,---,0.01,VWS V13.00,2013-05-10 17:45:00,
2013-05-10 13:50:00,76.7,55.5,29.91,WSW,240,0.0,5.0,48,0.00,,---,0.01,VWS V13.00,2013-05-10 17:50:00,
2013-05-10 13:55:00,77.1,57.0,29.91,WSW,240,0.0,5.0,50,0.00,,---,0.01,VWS V13.00,2013-05-10 17:55:00,
2013-05-10 14:00:00,77.8,56.0,29.92,WSW,240,0.0,5.0,47,0.00,,---,0.01,VWS V13.00,2013-05-10 18:00:00,
2013-05-10 14:05:00,77.6,56.4,29.91,WSW,240,0.0,5.0,48,0.00,,---,0.01,VWS V13.00,2013-05-10 18:05:00,
2013-05-10 14:10:00,77.6,57.0,29.91,WSW,240,0.0,1.0,49,0.00,,---,0.01,VWS V13.00,2013-05-10 18:10:00,
2013-05-10 14:15:00,77.8,56.6,29.91,WSW,240,2.0,5.0,48,0.00,,---,0.01,VWS V13.00,2013-05-10 18:15:00,
2013-05-10 14:20:00,77.6,56.4,29.91,WSW,240,0.0,5.0,48,0.00,,---,0.01,VWS V13.00,2013-05-10 18:20:00,
2013-05-10 14:25:00,76.9,56.3,29.91,WSW,240,0.0,5.0,49,0.00,,---,0.01,VWS V13.00,2013-05-10 18:25:00,
2013-05-10 14:30:00,76.3,56.3,29.91,WSW,240,0.0,5.0,50,0.00,,---,0.01,VWS V13.00,2013-05-10 18:30:00,
2013-05-10 14:35:00,76.2,57.3,29.91,WSW,240,3.0,5.0,52,0.00,,---,0.01,VWS V13.00,2013-05-10 18:35:00,
2013-05-10 14:40:00,76.8,56.8,29.91,WSW,240,0.0,3.0,50,0.00,,---,0.01,VWS V13.00,2013-05-10 18:40:00,
2013-05-10 14:45:00,76.8,56.2,29.91,WSW,240,0.0,3.0,49,0.00,,---,0.01,VWS V13.00,2013-05-10 18:45:00,
2013-05-10 14:50:00,76.7,58.3,29.91,WSW,240,0.0,3.0,53,0.00,,---,0.01,VWS V13.00,2013-05-10 18:50:00,
2013-05-10 14:55:00,76.9,55.7,29.91,WSW,240,2.0,3.0,48,0.00,,---,0.01,VWS V13.00,2013-05-10 18:55:00,
2013-05-10 15:00:00,77.1,57.0,29.91,WSW,240,0.0,3.0,50,0.00,,---,0.01,VWS V13.00,2013-05-10 19:00:00,
2013-05-10 15:05:00,77.1,57.6,29.91,WSW,240,2.0,3.0,51,0.00,,---,0.01,VWS V13.00,2013-05-10 19:05:00,
2013-05-10 15:10:00,77.3,57.2,29.90,WSW,240,2.0,5.0,50,0.00,,---,0.01,VWS V13.00,2013-05-10 19:10:00,
2013-05-10 15:15:00,77.7,57.6,29.90,SW,217,2.0,5.0,50,0.00,,---,0.01,VWS V13.00,2013-05-10 19:15:00,
2013-05-10 15:20:00,78.0,56.7,29.90,SW,217,2.0,6.0,48,0.00,,---,0.01,VWS V13.00,2013-05-10 19:20:00,
2013-05-10 15:25:00,77.4,55.6,29.90,SW,214,2.0,6.0,47,0.00,,---,0.01,VWS V13.00,2013-05-10 19:25:00,
2013-05-10 15:30:00,77.1,55.9,29.90,SW,214,0.0,6.0,48,0.00,,---,0.01,VWS V13.00,2013-05-10 19:30:00,
2013-05-10 15:35:00,76.7,55.5,29.90,SW,217,2.0,6.0,48,0.00,,---,0.01,VWS V13.00,2013-05-10 19:35:00,
2013-05-10 15:40:00,76.4,55.8,29.90,SSW,213,1.0,4.0,49,0.00,,---,0.01,VWS V13.00,2013-05-10 19:40:00,
2013-05-10 15:45:00,75.9,56.0,29.91,SSW,212,2.0,7.0,50,0.00,,---,0.01,VWS V13.00,2013-05-10 19:45:00,
2013-05-10 15:50:00,75.5,56.1,29.91,SSW,213,2.0,7.0,51,0.00,,---,0.01,VWS V13.00,2013-05-10 19:50:00,
2013-05-10 15:55:00,75.4,57.1,29.91,SSW,213,2.0,7.0,53,0.00,,---,0.01,VWS V13.00,2013-05-10 19:55:00,
2013-05-10 16:00:00,75.5,56.7,29.91,SSW,213,3.0,7.0,52,0.00,,---,0.01,VWS V13.00,2013-05-10 20:00:00,
2013-05-10 16:05:00,75.9,57.0,29.90,SSW,211,1.0,7.0,52,0.00,,---,0.01,VWS V13.00,2013-05-10 20:05:00,
2013-05-10 16:10:00,76.8,56.8,29.90,SSW,212,1.0,5.0,50,0.00,,---,0.01,VWS V13.00,2013-05-10 20:10:00,
2013-05-10 16:15:00,77.4,56.2,29.90,South,182,0.0,9.0,48,0.00,,---,0.01,VWS V13.00,2013-05-10 20:15:00,
2013-05-10 16:20:00,77.4,57.3,29.91,South,183,3.0,9.0,50,0.00,,---,0.01,VWS V13.00,2013-05-10 20:20:00,
2013-05-10 16:25:00,77.1,57.0,29.91,SSW,194,6.0,9.0,50,0.00,,---,0.01,VWS V13.00,2013-05-10 20:25:00,
2013-05-10 16:30:00,76.8,57.3,29.91,SSW,196,1.0,9.0,51,0.00,,---,0.01,VWS V13.00,2013-05-10 20:30:00,
2013-05-10 16:35:00,76.8,55.7,29.91,SSW,196,0.0,9.0,48,0.00,,---,0.01,VWS V13.00,2013-05-10 20:35:00,
2013-05-10 16:40:00,76.7,56.1,29.90,SSW,196,3.0,3.0,49,0.00,,---,0.01,VWS V13.00,2013-05-10 20:40:00,
2013-05-10 16:45:00,76.4,56.4,29.91,SSW,196,4.0,6.0,50,0.00,,---,0.01,VWS V13.00,2013-05-10 20:45:00,
2013-05-10 16:50:00,76.1,56.7,29.90,SSW,196,2.0,6.0,51,0.00,,---,0.01,VWS V13.00,2013-05-10 20:50:00,
2013-05-10 16:55:00,75.6,56.8,29.90,SSW,196,0.0,6.0,52,0.00,,---,0.01,VWS V13.00,2013-05-10 20:55:00,
2013-05-10 17:00:00,75.4,57.1,29.90,SSW,196,0.0,6.0,53,0.00,,---,0.01,VWS V13.00,2013-05-10 21:00:00,
2013-05-10 17:05:00,75.0,56.2,29.90,SSW,196,0.0,7.0,52,0.00,,---,0.01,VWS V13.00,2013-05-10 21:05:00,
2013-05-10 17:10:00,74.7,55.9,29.90,SSW,196,1.0,4.0,52,0.00,,---,0.01,VWS V13.00,2013-05-10 21:10:00,
2013-05-10 17:15:00,74.4,55.7,29.90,SSW,196,2.0,4.0,52,0.00,,---,0.01,VWS V13.00,2013-05-10 21:15:00,
2013-05-10 17:20:00,74.1,56.9,29.90,SSW,196,0.0,4.0,55,0.00,,---,0.01,VWS V13.00,2013-05-10 21:20:00,
2013-05-10 17:25:00,73.9,56.7,29.90,SSW,196,1.0,4.0,55,0.00,,---,0.01,VWS V13.00,2013-05-10 21:25:00,
2013-05-10 17:29:00,73.7,58.0,29.90,SSW,196,0.0,4.0,58,0.00,,---,0.01,VWS V13.00,2013-05-10 21:29:00,
2013-05-10 17:34:00,73.6,57.0,29.90,SSW,196,0.0,4.0,56,0.00,,---,0.01,VWS V13.00,2013-05-10 21:34:00,
2013-05-10 17:39:00,73.7,57.0,29.90,SSW,196,0.0,3.0,56,0.00,,---,0.01,VWS V13.00,2013-05-10 21:39:00,
2013-05-10 17:44:00,74.1,56.9,29.90,SSW,196,1.0,3.0,55,0.00,,---,0.01,VWS V13.00,2013-05-10 21:44:00,
2013-05-10 17:49:00,74.4,56.7,29.90,SSW,196,0.0,4.0,54,0.00,,---,0.01,VWS V13.00,2013-05-10 21:49:00,
2013-05-10 17:54:00,74.6,57.4,29.90,SSW,196,1.0,4.0,55,0.00,,---,0.01,VWS V13.00,2013-05-10 21:54:00,
2013-05-10 17:58:00,74.8,57.6,29.90,SSW,196,0.0,4.0,55,0.00,,---,0.01,VWS V13.00,2013-05-10 21:58:00,
2013-05-10 18:03:00,74.9,57.7,29.90,SSW,196,0.0,4.0,55,0.00,,---,0.01,VWS V13.00,2013-05-10 22:03:00,
2013-05-10 18:08:00,74.7,57.0,29.89,SSW,196,1.0,1.0,54,0.00,,---,0.01,VWS V13.00,2013-05-10 22:08:00,
2013-05-10 18:13:00,74.5,56.8,29.89,SSW,196,0.0,3.0,54,0.00,,---,0.01,VWS V13.00,2013-05-10 22:13:00,
2013-05-10 18:18:00,74.2,57.5,29.90,SSW,196,0.0,3.0,56,0.00,,---,0.01,VWS V13.00,2013-05-10 22:18:00,
2013-05-10 18:23:00,74.0,57.8,29.90,SSW,196,0.0,3.0,57,0.00,,---,0.01,VWS V13.00,2013-05-10 22:23:00,
2013-05-10 18:28:00,73.9,58.2,29.90,SSW,196,0.0,3.0,58,0.00,,---,0.01,VWS V13.00,2013-05-10 22:28:00,
2013-05-10 18:33:00,73.7,58.5,29.90,SSW,196,0.0,3.0,59,0.00,,---,0.01,VWS V13.00,2013-05-10 22:33:00,
2013-05-10 18:38:00,73.5,56.9,29.90,SSW,196,0.0,1.0,56,0.00,,---,0.01,VWS V13.00,2013-05-10 22:38:00,
2013-05-10 18:43:00,73.2,57.1,29.90,SSW,196,0.0,1.0,57,0.00,,---,0.01,VWS V13.00,2013-05-10 22:43:00,
2013-05-10 18:48:00,72.8,56.7,29.90,SSW,196,0.0,1.0,57,0.00,,---,0.01,VWS V13.00,2013-05-10 22:48:00,
2013-05-10 18:53:00,72.5,57.4,29.90,SSW,196,0.0,1.0,59,0.00,,---,0.01,VWS V13.00,2013-05-10 22:53:00,
2013-05-10 18:58:00,72.3,58.1,29.91,SSW,196,0.0,1.0,61,0.00,,---,0.01,VWS V13.00,2013-05-10 22:58:00,
2013-05-10 19:03:00,72.0,58.3,29.91,SSW,196,0.0,1.0,62,0.00,,---,0.01,VWS V13.00,2013-05-10 23:03:00,
2013-05-10 19:08:00,71.7,58.0,29.91,SSW,196,0.0,0.0,62,0.00,,---,0.01,VWS V13.00,2013-05-10 23:08:00,
2013-05-10 19:13:00,71.3,57.2,29.91,SSW,196,0.0,0.0,61,0.00,,---,0.01,VWS V13.00,2013-05-10 23:13:00,
2013-05-10 19:18:00,71.1,57.4,29.91,SSW,196,0.0,0.0,62,0.00,,---,0.01,VWS V13.00,2013-05-10 23:18:00,
2013-05-10 19:23:00,70.7,57.1,29.91,SSW,196,0.0,0.0,62,0.00,,---,0.01,VWS V13.00,2013-05-10 23:23:00,
2013-05-10 19:28:00,70.4,57.2,29.92,SSW,196,0.0,0.0,63,0.00,,---,0.01,VWS V13.00,2013-05-10 23:28:00,
2013-05-10 19:33:00,70.1,56.9,29.92,SSW,196,0.0,0.0,63,0.00,,---,0.01,VWS V13.00,2013-05-10 23:33:00,
2013-05-10 19:38:00,69.8,56.7,29.91,SSW,196,0.0,0.0,63,0.00,,---,0.01,VWS V13.00,2013-05-10 23:38:00,
2013-05-10 19:43:00,69.5,56.8,29.91,SSW,196,0.0,0.0,64,0.00,,---,0.01,VWS V13.00,2013-05-10 23:43:00,
2013-05-10 19:48:00,69.2,56.5,29.91,SSW,196,0.0,0.0,64,0.00,,---,0.01,VWS V13.00,2013-05-10 23:48:00,
2013-05-10 19:53:00,68.9,56.7,29.91,SSW,196,1.0,1.0,65,0.00,,---,0.01,VWS V13.00,2013-05-10 23:53:00,
2013-05-10 19:58:00,68.3,57.3,29.91,SSW,196,0.0,2.0,68,0.00,,---,0.01,VWS V13.00,2013-05-10 23:58:00,
2013-05-10 20:03:00,67.9,57.8,29.92,SSW,194,0.0,3.0,70,0.00,,---,0.01,VWS V13.00,2013-05-11 00:03:00,
2013-05-10 20:08:00,67.9,57.8,29.91,SSW,194,1.0,2.0,70,0.00,,---,0.01,VWS V13.00,2013-05-11 00:08:00,
2013-05-10 20:13:00,67.9,57.8,29.91,SSW,192,0.0,3.0,70,0.00,,---,0.01,VWS V13.00,2013-05-11 00:13:00,
2013-05-10 20:18:00,67.7,58.0,29.91,SSW,192,0.0,3.0,71,0.00,,---,0.01,VWS V13.00,2013-05-11 00:18:00,
2013-05-10 20:23:00,67.4,57.7,29.91,South,186,1.0,4.0,71,0.00,,---,0.01,VWS V13.00,2013-05-11 00:23:00,
2013-05-10 20:28:00,67.3,58.0,29.91,South,186,1.0,4.0,72,0.00,,---,0.01,VWS V13.00,2013-05-11 00:28:00,
2013-05-10 20:33:00,67.0,57.7,29.91,South,182,5.0,6.0,72,0.00,,---,0.01,VWS V13.00,2013-05-11 00:33:00,
2013-05-10 20:38:00,66.8,57.5,29.91,South,181,1.0,3.0,72,0.00,,---,0.01,VWS V13.00,2013-05-11 00:38:00,
2013-05-10 20:43:00,66.7,57.4,29.92,South,180,0.0,3.0,72,0.00,,---,0.01,VWS V13.00,2013-05-11 00:43:00,
2013-05-10 20:48:00,66.5,57.6,29.92,South,181,0.0,3.0,73,0.00,,---,0.01,VWS V13.00,2013-05-11 00:48:00,
2013-05-10 20:53:00,66.3,57.4,29.92,South,181,0.0,4.0,73,0.00,,---,0.01,VWS V13.00,2013-05-11 00:53:00,
2013-05-10 20:58:00,66.1,57.6,29.92,South,180,0.0,4.0,74,0.00,,---,0.01,VWS V13.00,2013-05-11 00:58:00,
2013-05-10 21:03:00,65.9,57.4,29.92,South,180,0.0,4.0,74,0.00,,---,0.01,VWS V13.00,2013-05-11 01:03:00,
2013-05-10 21:08:00,65.8,57.7,29.91,South,181,1.0,2.0,75,0.00,,---,0.01,VWS V13.00,2013-05-11 01:08:00,
2013-05-10 21:13:00,65.7,57.6,29.91,South,181,0.0,2.0,75,0.00,,---,0.01,VWS V13.00,2013-05-11 01:13:00,
2013-05-10 21:18:00,65.5,57.7,29.91,South,180,0.0,2.0,76,0.00,,---,0.01,VWS V13.00,2013-05-11 01:18:00,
2013-05-10 21:23:00,65.1,57.7,29.91,South,180,0.0,2.0,77,0.00,,---,0.01,VWS V13.00,2013-05-11 01:23:00,
2013-05-10 21:28:00,64.7,57.3,29.91,South,181,0.0,2.0,77,0.00,,---,0.01,VWS V13.00,2013-05-11 01:28:00,
2013-05-10 21:33:00,64.4,57.4,29.91,South,181,0.0,2.0,78,0.00,,---,0.01,VWS V13.00,2013-05-11 01:33:00,
2013-05-10 21:38:00,64.1,57.5,29.91,South,181,0.0,0.0,79,0.00,,---,0.01,VWS V13.00,2013-05-11 01:38:00,
2013-05-10 21:43:00,63.9,57.6,29.91,South,181,0.0,1.0,80,0.00,,---,0.01,VWS V13.00,2013-05-11 01:43:00,
2013-05-10 21:48:00,63.6,57.3,29.91,South,181,0.0,2.0,80,0.00,,---,0.01,VWS V13.00,2013-05-11 01:48:00,
2013-05-10 21:53:00,63.5,57.6,29.91,South,181,0.0,3.0,81,0.00,,---,0.01,VWS V13.00,2013-05-11 01:53:00,
2013-05-10 21:58:00,63.5,57.6,29.91,South,180,0.0,3.0,81,0.00,,---,0.01,VWS V13.00,2013-05-11 01:58:00,
2013-05-10 22:03:00,63.4,57.8,29.91,South,180,0.0,3.0,82,0.00,,---,0.01,VWS V13.00,2013-05-11 02:03:00,
2013-05-10 22:08:00,63.3,57.7,29.90,South,181,0.0,2.0,82,0.00,,---,0.01,VWS V13.00,2013-05-11 02:08:00,
2013-05-10 22:13:00,63.1,57.5,29.90,South,181,0.0,2.0,82,0.00,,---,0.01,VWS V13.00,2013-05-11 02:13:00,
2013-05-10 22:18:00,63.0,57.8,29.90,South,180,0.0,2.0,83,0.00,,---,0.01,VWS V13.00,2013-05-11 02:18:00,
2013-05-10 22:23:00,62.8,57.6,29.90,South,181,0.0,2.0,83,0.00,,---,0.01,VWS V13.00,2013-05-11 02:23:00,
2013-05-10 22:28:00,62.7,57.8,29.90,South,180,0.0,4.0,84,0.00,,---,0.01,VWS V13.00,2013-05-11 02:28:00,
2013-05-10 22:33:00,62.5,57.6,29.90,South,180,0.0,4.0,84,0.00,,---,0.01,VWS V13.00,2013-05-11 02:33:00,
2013-05-10 22:38:00,62.4,57.5,29.90,South,181,0.0,2.0,84,0.00,,---,0.01,VWS V13.00,2013-05-11 02:38:00,
2013-05-10 22:43:00,62.2,57.6,29.90,South,181,1.0,3.0,85,0.00,,---,0.01,VWS V13.00,2013-05-11 02:43:00,
2013-05-10 22:48:00,62.0,57.5,29.90,South,181,2.0,3.0,85,0.00,,---,0.01,VWS V13.00,2013-05-11 02:48:00,
2013-05-10 22:53:00,61.9,57.7,29.90,South,181,1.0,3.0,86,0.00,,---,0.01,VWS V13.00,2013-05-11 02:53:00,
2013-05-10 22:58:00,61.8,57.6,29.90,South,180,1.0,3.0,86,0.00,,---,0.01,VWS V13.00,2013-05-11 02:58:00,
2013-05-10 23:03:00,61.7,57.5,29.89,South,181,0.0,3.0,86,0.00,,---,0.01,VWS V13.00,2013-05-11 03:03:00,
2013-05-10 23:08:00,61.6,57.4,29.89,South,180,0.0,1.0,86,0.00,,---,0.01,VWS V13.00,2013-05-11 03:08:00,
2013-05-10 23:13:00,61.4,57.5,29.89,South,181,0.0,1.0,87,0.00,,---,0.01,VWS V13.00,2013-05-11 03:13:00,
2013-05-10 23:18:00,61.3,57.4,29.89,South,180,0.0,4.0,87,0.00,,---,0.01,VWS V13.00,2013-05-11 03:18:00,
2013-05-10 23:23:00,61.2,57.3,29.89,South,181,1.0,4.0,87,0.00,,---,0.01,VWS V13.00,2013-05-11 03:23:00,
2013-05-10 23:28:00,61.0,57.4,29.89,South,181,2.0,4.0,88,0.00,,---,0.01,VWS V13.00,2013-05-11 03:28:00,
2013-05-10 23:33:00,60.9,57.3,29.89,South,181,0.0,4.0,88,0.00,,---,0.01,VWS V13.00,2013-05-11 03:33:00,
2013-05-10 23:38:00,60.8,57.2,29.89,South,180,4.0,5.0,88,0.00,,---,0.01,VWS V13.00,2013-05-11 03:38:00,
2013-05-10 23:43:00,60.9,57.6,29.89,South,181,0.0,5.0,89,0.00,,---,0.01,VWS V13.00,2013-05-11 03:43:00,
2013-05-10 23:48:00,60.9,57.6,29.89,South,181,2.0,5.0,89,0.00,,---,0.01,VWS V13.00,2013-05-11 03:48:00,
2013-05-10 23:53:00,60.9,57.6,29.89,South,180,3.0,5.0,89,0.00,,---,0.01,VWS V13.00,2013-05-11 03:53:00,
2013-05-10 23:58:00,60.8,57.2,29.89,South,181,1.0,5.0,88,0.00,,---,0.01,VWS V13.00,2013-05-11 03:58:00,